Location: Liberec
(50.7830°N, 15.0500°E)
Time: 02:59:19
(UTC+01:00)

ISS - Pass Details

Date: 03 October 2020
Orbit: 417 x 420 km, 51.6° (Epoch: 25 October)

Event Time Altitude Azimuth Distance (km) Brightness Sun altitude
Rises 21:08:09 0° 279° (W) 2,369 1.3 -24.8°
Reaches altitude 10° 21:11:12 10° 249° (WSW) 1,501 -0.4 -25.2°
Enters shadow 21:12:12 12° 232° (SW) 1,374 -0.9 -25.4°
